Regional Weather Roundup
Issued by NWS

Home | Current Version | Previous Version | Graphics & Text | Print | Product List | Glossary On
Versions: 1 2 3 4 5 6 7 8 9 10 11 12 13 14 15 16 17 18 19 20 21 22 23 24 25 26 27 28 29 30 31 32 33 34 35 36 37 38 39 40 41 42 43 44 45 46 47 48 49 50
000
ASUS43 KLMK 240010
RWRKY
KENTUCKY REGIONAL WEATHER ROUNDUP
NATIONAL WEATHER SERVICE LOUISVILLE KY
800 PM EDT SAT SEP 23 2017

NOTE "FAIR" INDICATES FEW OR NO CLOUDS BELOW 12,000 FEET
WITH NO SIGNIFICANT WEATHER AND/OR OBSTRUCTIONS TO VISIBILITY.

KYZ001>023-026-027-061>063-070>075-240100-
WESTERN AND SOUTH CENTRAL KENTUCKY

CITY           SKY/WX    TMP DP  RH WIND       PRES   REMARKS
PADUCAH        CLEAR     82  63  52 SE3       29.98S
HENDERSON      CLEAR     79  64  60 E3        30.03R
OWENSBORO      CLEAR     82  64  54 CALM      30.03S
HOPKINSVILLE   NOT AVBL
BOWLING GREEN  CLEAR     80  67  64 NE3       30.03S
GLASGOW        CLEAR     77  67  71 CALM      30.04S
$$

KYZ024-025-028>034-038-045-046-053-240100-
NORTH CENTRAL KENTUCKY

CITY           SKY/WX    TMP DP  RH WIND       PRES   REMARKS
LOUISVILLE/SDF PTCLDY    84  61  45 E6        30.05R
LOUISVILLE/LOU CLEAR     81  65  58 NE3       30.05S
FORT KNOX      CLEAR     80  66  61 NE3       30.04S
$$

KYZ035>037-039>044-047>052-055>060-089>105-240100-
NORTHEAST KENTUCKY

CITY           SKY/WX    TMP DP  RH WIND       PRES   REMARKS
LEXINGTON      CLEAR     78  61  55 NE6       30.08R
COVINGTON      PTCLDY    80  67  64 S3        30.07S
FRANKFORT      CLEAR     76  63  64 CALM      30.06S
$$

KYZ054-064>069-076>088-106>120-240100-
SOUTHEAST KENTUCKY

CITY           SKY/WX    TMP DP  RH WIND       PRES   REMARKS
JACKSON        CLEAR     75  62  64 CALM      30.09S
LONDON         CLEAR     76  63  64 CALM      30.08R
SOMERSET       CLEAR     75  63  64 CALM      30.07R
MIDDLESBORO    CLEAR     74  67  77 SW3       30.07R
MONTICELLO     NOT AVBL
$$





USA.gov is the U.S. government's official web portal to all federal, state and local government web resources and services.